GW4990 Weather Reports


Display with metric or nautical units.
time (UTC)temp
F
wind
direction
speed
MPH
gust
MPH
rain 1hr
in
rain 24hr
in
rain mn
in
humidity
%
barometer
mb
20260505075304 95 91 0.0 0.0 0.00 0.00 0.00 63 1014.0
20260505074804 95 162 0.0 0.0 0.00 0.00 0.00 63 1015.0
20260505074304 94 142 0.0 0.0 0.00 0.00 0.00 65 1014.0
20260505073805 94 83 0.0 0.0 0.00 0.00 0.00 66 1015.0
20260505073306 95 148 0.0 0.0 0.00 0.00 0.00 63 1015.0
20260505072806 95 129 0.0 0.0 0.00 0.00 0.00 64 1015.0
20260505072305 96 82 0.0 0.0 0.00 0.00 0.00 63 1015.0
20260505071804 95 80 0.0 0.0 0.00 0.00 0.00 64 1015.0
20260505071304 95 187 0.0 0.0 0.00 0.00 0.00 65 1015.0
20260505070804 95 186 0.0 0.0 0.00 0.00 0.00 64 1015.0
20260505070304 96 113 0.0 0.0 0.00 0.00 0.00 63 1015.0
20260505065807 95 98 0.0 0.0 0.00 0.00 0.00 65 1015.0
20260505065304 95 55 0.0 0.0 0.00 0.00 0.00 63 1015.0
20260505064804 95 155 0.0 0.0 0.00 0.00 0.00 63 1016.0
20260505064305 96 107 0.0 0.0 0.00 0.00 0.00 60 1016.0
20260505063805 96 109 0.0 0.0 0.00 0.00 0.00 60 1016.0
20260505063304 95 240 0.0 0.0 0.00 0.00 0.00 61 1016.0
20260505062804 94 250 0.0 0.0 0.00 0.00 0.00 62 1016.0
20260505062304 94 144 0.0 0.0 0.00 0.00 0.00 62 1016.0
20260505061804 94 75 0.0 0.0 0.00 0.00 0.00 62 1016.0
20260505061305 94 142 0.0 0.0 0.00 0.00 0.00 62 1016.0
20260505060804 93 274 0.0 0.0 0.00 0.00 0.00 63 1016.0
20260505060304 95 115 0.0 0.0 0.00 0.00 0.00 61 1016.0
20260505055804 94 144 0.0 0.0 0.00 0.00 0.00 62 1016.0
20260505055305 94 157 0.0 0.0 0.00 0.00 0.00 62 1016.0
20260505054805 94 186 0.0 0.0 0.00 0.00 0.00 62 1016.0
20260505054304 94 92 0.0 0.0 0.00 0.00 0.00 62 1016.0
20260505053804 94 187 0.0 0.0 0.00 0.00 0.00 61 1016.0
20260505053304 95 191 0.0 0.0 0.00 0.00 0.00 60 1016.0
20260505052804 94 126 0.0 0.0 0.00 0.00 0.00 62 1016.0
20260505052304 94 47 0.0 0.0 0.00 0.00 0.00 61 1016.0
20260505051804 93 62 0.0 0.0 0.00 0.00 0.00 62 1016.0
20260505051304 94 305 0.0 0.0 0.00 0.00 0.00 62 1016.0
20260505050804 93 234 0.0 0.0 0.00 0.00 0.00 64 1016.0
20260505050304 93 49 0.0 0.0 0.00 0.00 0.00 62 1016.0
20260505041304 89 57 0.0 0.0 0.00 0.00 0.00 68 1017.0
20260505040804 88 346 0.0 0.0 0.00 0.00 0.00 70 1016.0
20260505040304 89 188 0.0 0.0 0.00 0.00 0.00 68 1017.0
20260505035804 88 219 0.0 0.0 0.00 0.00 0.00 70 1016.0
20260505035307 88 245 0.0 0.0 0.00 0.00 0.00 72 1017.0
20260505034804 88 170 0.0 0.0 0.00 0.00 0.00 71 1016.0
20260505034305 87 259 0.0 0.0 0.00 0.00 0.00 72 1016.0
20260505033804 87 229 0.0 0.0 0.00 0.00 0.00 72 1016.0
20260505033305 88 320 0.0 0.0 0.00 0.00 0.00 72 1016.0
20260505032804 88 10 0.0 0.0 0.00 0.00 0.00 72 1016.0
20260505032305 87 256 0.0 0.0 0.00 0.00 0.00 73 1016.0
20260505031804 86 232 0.0 0.0 0.00 0.00 0.00 74 1016.0
20260505031304 86 249 0.0 0.0 0.00 0.00 0.00 74 1016.0
20260505030804 86 191 0.0 0.0 0.00 0.00 0.00 73 1016.0
20260505030304 86 281 0.0 0.0 0.00 0.00 0.00 75 1016.0
20260505025804 87 351 0.0 0.0 0.00 0.00 0.00 73 1016.0
20260505025305 87 294 0.0 0.0 0.00 0.00 0.00 73 1016.0
20260505024804 87 282 0.0 0.0 0.00 0.00 0.00 72 1016.0
20260505024304 87 7 0.0 0.0 0.00 0.00 0.00 72 1016.0
20260505023804 86 338 0.0 0.0 0.00 0.00 0.00 73 1016.0
20260505023304 87 44 0.0 0.0 0.00 0.00 0.00 72 1016.0
20260505022804 87 21 0.0 0.0 0.00 0.00 0.00 71 1016.0
20260505022304 87 266 0.0 0.0 0.00 0.00 0.00 72 1016.0
20260505021804 86 20 0.0 0.0 0.00 0.00 0.00 72 1016.0
20260505021305 88 243 0.0 0.0 0.00 0.00 0.00 70 1016.0
20260505020804 89 70 0.0 0.0 0.00 0.00 0.00 68 1016.0
20260505020304 88 90 0.0 0.0 0.00 0.00 0.00 70 1015.0
20260505015804 87 236 0.0 0.0 0.00 0.00 0.00 71 1015.0
20260505015304 86 236 0.0 0.0 0.00 0.00 0.00 71 1015.0
20260505014804 86 232 0.0 0.0 0.00 0.00 0.00 72 1015.0
20260505014304 86 3 0.0 0.0 0.00 0.00 0.00 72 1015.0
20260505013804 86 134 0.0 0.0 0.00 0.00 0.00 72 1015.0
20260505013304 86 82 0.0 0.0 0.00 0.00 0.00 72 1015.0
20260505012804 85 162 0.0 0.0 0.00 0.00 0.00 73 1015.0
20260505012304 84 96 0.0 0.0 0.00 0.00 0.00 74 1015.0
20260505011805 84 77 0.0 0.0 0.00 0.00 0.00 75 1015.0
20260505011304 84 82 0.0 0.0 0.00 0.00 0.00 75 1015.0
20260505010810 84 63 0.0 0.0 0.00 0.00 0.00 76 1015.0
20260505010305 83 321 0.0 0.0 0.00 0.00 0.00 77 1015.0
20260505005804 83 336 0.0 0.0 0.00 0.00 0.00 77 1015.0
20260505005304 83 256 0.0 0.0 0.00 0.00 0.00 77 1015.0
20260505004804 83 211 0.0 0.0 0.00 0.00 0.00 77 1015.0
20260505003814 83 285 0.0 0.0 0.00 0.00 0.00 77 1014.0
20260505003306 83 323 0.0 0.0 0.00 0.00 0.00 77 1015.0
20260505002805 83 40 0.0 0.0 0.00 0.00 0.00 76 1015.0
20260505002304 83 257 0.0 0.0 0.00 0.00 0.00 76 1014.0
20260505001804 83 146 0.0 0.0 0.00 0.00 0.00 76 1014.0
20260505001304 83 182 0.0 0.0 0.00 0.00 0.00 77 1014.0
20260504230804 83 217 0.0 0.0 0.00 0.00 0.00 77 1015.0
20260504230304 83 237 0.0 0.0 0.00 0.00 0.00 76 1014.0
20260504225804 83 297 0.0 0.0 0.00 0.00 0.00 76 1014.0
20260504225305 83 254 0.0 0.0 0.00 0.00 0.00 76 1014.0
20260504224804 83 117 0.0 0.0 0.00 0.00 0.00 77 1014.0
20260504224304 83 202 0.0 0.0 0.00 0.00 0.00 77 1014.0
20260504223332 83 241 0.0 0.0 0.00 0.00 0.00 78 1014.0
20260504222804 83 262 0.0 0.0 0.00 0.00 0.00 77 1015.0
20260504222305 83 207 0.0 0.0 0.00 0.00 0.00 78 1015.0
20260504221804 82 212 0.0 0.0 0.00 0.00 0.00 78 1015.0
20260504221304 82 220 0.0 0.0 0.00 0.00 0.00 79 1015.0
20260504220804 82 200 0.0 0.0 0.00 0.00 0.00 79 1014.0
20260504220305 82 275 0.0 0.0 0.00 0.00 0.00 79 1015.0
20260504215804 82 232 0.0 0.0 0.00 0.00 0.00 79 1015.0
20260504215305 82 292 0.0 0.0 0.00 0.00 0.00 80 1015.0
20260504214805 82 238 0.0 0.0 0.00 0.00 0.00 80 1015.0
20260504214304 82 316 0.0 0.0 0.00 0.00 0.00 80 1015.0
20260504213804 82 288 0.0 0.0 0.00 0.00 0.00 80 1015.0
20260504213305 82 200 0.0 0.0 0.00 0.00 0.00 80 1015.0
20260504212805 82 272 0.0 0.0 0.00 0.00 0.00 80 1015.0
20260504212304 82 280 0.0 0.0 0.00 0.00 0.00 80 1015.0
20260504211805 82 232 0.0 0.0 0.00 0.00 0.00 81 1015.0
20260504211304 82 176 0.0 0.0 0.00 0.00 0.00 82 1015.0
20260504210804 82 254 0.0 0.0 0.00 0.00 0.00 82 1016.0
20260504210304 82 223 0.0 0.0 0.00 0.00 0.00 82 1016.0
20260504205805 82 230 0.0 0.0 0.00 0.00 0.00 83 1016.0
20260504205304 82 147 0.0 0.0 0.00 0.00 0.00 83 1016.0
20260504204804 83 226 0.0 0.0 0.00 0.00 0.00 82 1016.0
20260504204304 83 328 0.0 0.0 0.00 0.00 0.00 82 1015.0
20260504203805 83 278 0.0 0.0 0.00 0.00 0.00 81 1015.0
20260504203304 84 230 0.0 0.0 0.00 0.00 0.00 80 1015.0
20260504202805 84 280 0.0 0.0 0.00 0.00 0.00 81 1015.0
20260504202305 84 201 0.0 0.0 0.00 0.00 0.00 80 1015.0
20260504201804 84 197 0.0 0.0 0.00 0.00 0.00 80 1015.0
20260504201304 84 113 0.0 0.0 0.00 0.00 0.00 80 1014.0
20260504200804 84 138 0.0 0.0 0.00 0.00 0.00 80 1015.0
20260504200305 84 179 0.0 0.0 0.00 0.00 0.00 80 1015.0
20260504195804 84 191 0.0 0.0 0.00 0.00 0.00 80 1015.0
20260504195304 84 161 0.0 0.0 0.00 0.00 0.00 80 1015.0
20260504194804 84 243 0.0 0.0 0.00 0.00 0.00 80 1015.0
20260504194304 84 100 0.0 0.0 0.00 0.00 0.00 80 1015.0
20260504193804 84 120 0.0 0.0 0.00 0.00 0.00 80 1015.0
20260504193304 84 158 0.0 0.0 0.00 0.00 0.00 80 1015.0
20260504192804 84 186 0.0 0.0 0.00 0.00 0.00 80 1015.0
20260504192305 84 170 0.0 0.0 0.00 0.00 0.00 80 1015.0
20260504191804 84 203 0.0 0.0 0.00 0.00 0.00 80 1015.0
20260504191304 84 181 0.0 0.0 0.00 0.00 0.00 79 1015.0
20260504190804 84 121 0.0 0.0 0.00 0.00 0.00 79 1015.0
20260504190304 84 182 0.0 0.0 0.00 0.00 0.00 79 1015.0
20260504185805 84 194 0.0 0.0 0.00 0.00 0.00 79 1015.0
20260504185305 84 126 0.0 0.0 0.00 0.00 0.00 79 1015.0
20260504184804 84 151 0.0 0.0 0.00 0.00 0.00 79 1015.0
20260504184305 84 189 0.0 0.0 0.00 0.00 0.00 79 1015.0
20260504183804 84 190 0.0 0.0 0.00 0.00 0.00 78 1015.0
20260504183304 84 207 0.0 0.0 0.00 0.00 0.00 79 1015.0
20260504182814 84 261 0.0 0.0 0.00 0.00 0.00 79 1015.0
20260504182306 84 221 0.0 0.0 0.00 0.00 0.00 79 1015.0
20260504181806 85 275 0.0 0.0 0.00 0.00 0.00 79 1015.0
20260504181305 85 261 0.0 0.0 0.00 0.00 0.00 79 1015.0
20260504180805 85 200 0.0 0.0 0.00 0.00 0.00 80 1015.0
20260504180304 85 205 0.0 0.0 0.00 0.00 0.00 80 1015.0
20260504175805 85 208 0.0 0.0 0.00 0.00 0.00 80 1015.0
20260504175304 85 233 0.0 0.0 0.00 0.00 0.00 80 1015.0
20260504174804 85 169 0.0 0.0 0.00 0.00 0.00 80 1015.0
20260504174305 86 165 0.0 0.0 0.00 0.00 0.00 79 1016.0
20260504173805 86 207 0.0 0.0 0.00 0.00 0.00 79 1016.0
20260504173304 86 170 0.0 0.0 0.00 0.00 0.00 79 1016.0
20260504172806 86 188 0.0 0.0 0.00 0.00 0.00 79 1016.0
20260504172305 86 219 0.0 0.0 0.00 0.00 0.00 78 1016.0
20260504171804 86 228 0.0 0.0 0.00 0.00 0.00 78 1016.0
20260504171304 86 196 0.0 0.0 0.00 0.00 0.00 79 1016.0
20260504170804 86 250 0.0 0.0 0.00 0.00 0.00 80 1016.0
20260504170304 86 194 0.0 0.0 0.00 0.00 0.00 81 1016.0
20260504160304 87 216 0.0 0.0 0.00 0.00 0.00 83 1015.0
20260504150804 87 139 0.0 0.0 0.00 0.00 0.00 83 1015.0
20260504150304 87 145 0.0 0.0 0.00 0.00 0.00 83 1015.0
20260504141307 87 80 0.0 0.0 0.00 0.00 0.00 82 1013.0
20260504140805 87 126 0.0 0.0 0.00 0.00 0.00 82 1014.0
20260504140304 87 117 0.0 0.0 0.00 0.00 0.00 81 1014.0
20260504130805 87 122 0.0 0.0 0.00 0.00 0.00 82 1012.0
20260504130305 87 172 0.0 0.0 0.00 0.00 0.00 82 1012.0
20260504120304 92 260 0.0 0.0 0.00 0.00 0.00 66 1011.0
20260504110304 94 201 0.0 0.0 0.00 0.00 0.00 67 1011.0
20260504100305 95 126 0.0 0.0 0.00 0.00 0.00 64 1012.0
20260504081805 96 256 0.0 0.0 0.00 0.00 0.00 60 1013.0
20260504081304 96 178 0.0 0.0 0.00 0.00 0.00 60 1013.0
20260504080804 97 196 0.0 0.0 0.00 0.00 0.00 59 1013.0
20260504080304 96 182 0.0 0.0 0.00 0.00 0.00 59 1013.0